Tracking 27420 objects as of 28-May-2023
HD Live streaming from Space Station
objects crossing your sky now

STARLINK-5909

Track STARLINK-5909 now!
10-day predictions
STARLINK-5909 is classified as:


NORAD ID: 55938
Int'l Code: 2023-037AA
Perigee: 364.1 km
Apogee: 368.5 km
Inclination: 70.0 °
Period: 91.7 minutes
Semi major axis: 6737 km
RCS: Unknown
Launch date: March 17, 2023
Source: United States (US)
Launch site: AIR FORCE WESTERN TEST RANGE (AFWTR)
Your satellite tracking list
Your tracking list is empty




NASA's NSSDC Master Catalog

Two Line Element Set (TLE):
1 55938U 23037AA  23147.95851916  .00000455  00000-0  55546-5 0  9990
2 55938  69.9968 340.9144 0003274 272.9955  87.0866 15.69920100 11368
Source of the keplerian elements: AFSPC